Location: Granada
(37.1830°N, 3.6000°W)
Time: 13:07:20
(UTC+01:00)

Iridium 70 - Visible Passes

Search period start: 28 January 2015 00:00
Search period end: 07 February 2015 00:00
Orbit: 776 x 779 km, 86.4° (Epoch: 27 January)

Date Brightness Start Highest point End Pass type
(mag) Time Alt. Az. Time Alt. Az. Time Alt. Az.
28 Jan 6.7 20:11:21 10° NNW 20:16:16 43° W 20:21:09 10° SSW visible
29 Jan 7.0 07:25:17 10° SSE 07:30:06 41° E 07:35:01 10° NNE visible
29 Jan 5.6 19:37:36 10° N 19:42:50 83° W 19:48:02 10° S visible
30 Jan 8.1 06:52:54 10° SE 06:56:45 22° E 07:00:47 10° NNE visible
30 Jan 5.7 19:04:12 10° N 19:09:16 52° E 19:14:20 10° SSE visible
30 Jan 8.4 20:46:26 10° NW 20:49:36 16° W 20:52:31 10° WSW visible
31 Jan 8.7 06:22:00 10° E 06:23:29 11° E 06:25:18 10° ENE visible
31 Jan 7.5 20:11:47 10° NNW 20:16:17 29° W 20:20:42 10° SW visible
01 Feb 6.1 07:25:03 10° SSE 07:30:09 62° E 07:35:19 10° N visible
01 Feb 6.3 19:37:47 10° NNW 19:42:54 56° W 19:47:58 10° SSW visible
02 Feb 7.4 06:52:13 10° SE 06:56:45 32° E 07:01:23 10° NNE visible
02 Feb 5.5 19:04:10 10° N 19:09:25 77° E 19:14:37 10° S visible
02 Feb 8.9 20:48:38 10° WNW 20:49:32 10° W 20:50:03 10° W visible
03 Feb 8.4 06:20:13 10° ESE 06:23:25 17° E 06:26:51 10° NE visible
03 Feb 8.2 20:12:27 10° NW 20:16:16 20° W 20:19:55 10° SW visible
04 Feb 5.6 07:25:02 10° S 07:30:13 90° WSW 07:35:29 10° N visible
04 Feb 7.2 19:38:08 10° NNW 19:42:56 38° W 19:47:40 10° SSW visible
05 Feb 6.6 06:51:49 10° SSE 06:56:46 47° E 07:01:47 10° NNE visible
05 Feb 5.9 19:04:17 10° N 19:09:31 73° W 19:14:40 10° S visible
06 Feb 7.8 06:19:16 10° SE 06:23:24 25° E 06:27:40 10° NNE visible
06 Feb 8.6 20:13:33 10° NW 20:16:14 14° W 20:18:37 10° WSW visible
